TimeEST,TemperatureF,Dew PointF,Humidity,Sea Level PressureIn,VisibilityMPH,Wind Direction,Wind SpeedMPH,Gust SpeedMPH,PrecipitationIn,Events,Conditions,WindDirDegrees,DateUTC
12:53 AM,26.1,23.0,88,29.84,10.0,Calm,Calm,-,N/A,,Clear,0,2013-02-13 05:53:00
1:53 AM,24.1,21.0,88,29.83,10.0,Calm,Calm,-,N/A,,Clear,0,2013-02-13 06:53:00
2:53 AM,21.9,21.0,96,29.85,5.0,Calm,Calm,-,N/A,,Partly Cloudy,0,2013-02-13 07:53:00
3:00 AM,21.2,19.4,93,29.84,1.8,Calm,Calm,-,N/A,,Scattered Clouds,0,2013-02-13 08:00:00
3:05 AM,19.4,17.6,93,29.84,3.0,Calm,Calm,-,N/A,,Mostly Cloudy,0,2013-02-13 08:05:00
3:53 AM,30.9,21.0,67,29.86,10.0,WSW,5.8,-,N/A,,Overcast,240,2013-02-13 08:53:00
4:53 AM,28.0,21.0,75,29.87,10.0,Calm,Calm,-,N/A,,Clear,0,2013-02-13 09:53:00
5:53 AM,21.9,19.9,92,29.86,10.0,Calm,Calm,-,N/A,,Clear,0,2013-02-13 10:53:00
6:53 AM,19.9,18.0,92,29.87,10.0,Calm,Calm,-,N/A,,Clear,0,2013-02-13 11:53:00
7:53 AM,21.9,18.0,85,29.86,10.0,Calm,Calm,-,N/A,,Clear,0,2013-02-13 12:53:00
8:53 AM,34.0,21.9,61,29.88,10.0,WSW,4.6,-,N/A,,Clear,240,2013-02-13 13:53:00
9:53 AM,37.0,21.9,54,29.86,10.0,NW,5.8,-,N/A,,Clear,310,2013-02-13 14:53:00
10:53 AM,37.9,21.9,53,29.84,10.0,West,6.9,-,N/A,,Clear,270,2013-02-13 15:53:00
11:53 AM,39.9,21.9,49,29.82,10.0,NW,4.6,-,N/A,,Partly Cloudy,310,2013-02-13 16:53:00
12:53 PM,41.0,21.9,47,29.81,10.0,SW,4.6,-,N/A,,Clear,230,2013-02-13 17:53:00
1:53 PM,42.1,23.0,47,29.79,10.0,West,6.9,-,N/A,,Scattered Clouds,280,2013-02-13 18:53:00
2:53 PM,42.1,23.0,47,29.77,10.0,WNW,8.1,-,N/A,,Partly Cloudy,300,2013-02-13 19:53:00
3:53 PM,42.1,23.0,47,29.75,10.0,NW,3.5,-,N/A,,Clear,320,2013-02-13 20:53:00
4:53 PM,39.9,23.0,51,29.75,10.0,NW,4.6,-,N/A,,Clear,310,2013-02-13 21:53:00
5:53 PM,34.0,25.0,70,29.75,10.0,Calm,Calm,-,N/A,,Clear,0,2013-02-13 22:53:00
6:53 PM,35.1,24.1,64,29.74,10.0,Calm,Calm,-,N/A,,Clear,0,2013-02-13 23:53:00
7:53 PM,33.1,25.0,72,29.74,10.0,Calm,Calm,-,N/A,,Clear,0,2013-02-14 00:53:00
8:53 PM,30.0,25.0,82,29.73,10.0,Calm,Calm,-,N/A,,Scattered Clouds,0,2013-02-14 01:53:00
9:53 PM,32.0,25.0,75,29.73,10.0,Calm,Calm,-,N/A,,Scattered Clouds,0,2013-02-14 02:53:00
10:53 PM,30.9,26.1,82,29.73,10.0,Calm,Calm,-,N/A,,Mostly Cloudy,0,2013-02-14 03:53:00
11:53 PM,30.9,27.0,85,29.72,10.0,South,3.5,-,N/A,,Overcast,190,2013-02-14 04:53:00